Location: Triton
(47.6048°N, 122.9899°W)
Time: 02:39:23
(UTC+00:00)

ACS3 Solar Sail - Visible Passes

Search period start: 18 February 2026 00:00
Search period end: 28 February 2026 00:00
Orbit: 898 x 968 km, 97.2° (Epoch: 17 February)

Date Brightness Start Highest point End Pass type
(mag) Time Alt. Az. Time Alt. Az. Time Alt. Az.
18 Feb 4.4 10:23:20 10° NNE 10:23:28 11° NNE 10:23:28 11° NNE visible
19 Feb 4.3 10:35:40 10° N 10:36:01 12° N 10:36:01 12° N visible
20 Feb 4.2 10:47:59 10° N 10:48:31 13° N 10:48:31 13° N visible
21 Feb 4.1 11:00:19 10° N 11:00:59 13° N 11:00:59 13° N visible
22 Feb 4.0 11:12:39 10° N 11:13:24 14° N 11:13:24 14° N visible
23 Feb 4.5 09:42:00 10° NNE 09:42:03 10° NNE 09:42:03 10° NNE visible
23 Feb 3.9 11:25:00 10° N 11:25:47 14° N 11:25:47 14° N visible
24 Feb 4.4 09:54:02 10° NNE 09:54:24 12° NNE 09:54:24 12° NNE visible
24 Feb 3.9 11:37:21 10° N 11:38:09 13° NNW 11:38:09 13° NNW visible
25 Feb 4.2 10:06:04 10° NNE 10:06:43 13° NNE 10:06:43 13° NNE visible
25 Feb 3.9 11:49:43 10° NNW 11:50:28 13° NNW 11:50:28 13° NNW visible
26 Feb 4.1 10:18:07 10° NNE 10:19:00 15° NNE 10:19:00 15° NNE visible
26 Feb 3.9 12:02:10 10° NNW 12:02:44 12° NNW 12:02:44 12° NNW visible
27 Feb 4.0 10:30:09 10° N 10:31:15 16° N 10:31:15 16° N visible
27 Feb 3.9 12:14:44 10° NNW 12:14:58 11° NNW 12:14:58 11° NNW visible
